一网星座-0665星 (ONEWEB-0665)

导读 | 豆包AI

ONEWEB-0665是英国OneWeb星座的第二代低轨通信卫星,于2023年3月9日发射。作为OneWeb全球卫星互联网组网的一部分,该卫星运行于约1200公里近地轨道,依托Ku频段提供高速宽带服务,设计寿命约7年,旨在补全全球覆盖,支持偏远地区互联网接入,助力OneWeb实现全球无缝连接,为后续融入天地一体化通信网络奠定基础。

基本信息
目录编号:
55825
目录名称:
ONEWEB-0665
国际标识:
2023-029AF
轨道中心:
EARTH
卫星名称:
一网星座-0665星
卫星全名:
一网星座-0665星 (ONEWEB-0665)
卫星状态:
在轨 (已飞行1122 天)
发射日期:
2023-03-09 UTC
国别 :
英国 (GB)
星等 :
--
轨道信息
数据来源 国际轨道数据 AOE轨道数据
星历时间 2026-04-03T23:20:14+0800
12小时前
查看轨道信息
2026-04-02T10:00:00+0800
2天前
查看轨道信息
半长轴 7583.919km 7583.927km
偏心率 0.0002042 0.0001822
轨道倾角 87.893° 87.893°
近地点辐角 91.767° 88.388°
升交点赤经 304.610° 304.921°
平近点角 268.369° 113.936°
近地点 1204.233km 1204.408km
远地点 1207.331km 1207.172km
周期 109.547分钟 109.547分钟
每日圈数 13.14505 13.145029
详细信息
平衡模式:
三轴稳定
覆盖范围:
全球
运营商:
一网卫星公司
运营商所在国:
英国
制造商(研发单位):
一网卫星公司
制造商所在国:
英国
使用方式:
暂无
卫星简介
OneWeb卫星网络由648颗重约125公斤的微型卫星组成,运行在1200公里的轨道上。 每颗卫星都能够提供至少每秒8千兆位的吞吐量,以使用其高吞吐量的Ku频段有效载荷为家庭和移动平台提供互联网接入。该卫星仍在工作。
2D轨道图
3D轨道图
轨道高度分析图
轨道倾角分析图
轨道综合分析图
查看轨道综合分析图